sat.trackr.live / text

‹ back to catalog

STARLINK-35183

NORAD 65646 · 2025-210AA

PAYLOAD ACTIVE UNKNOWN

§ Identity

Operator
Country
US
Launch date
2025-09-18
Launch site
AFETR
Launch vehicle
Mass (kg)
RCS (m²)

Purposes: comms

External: N2YO · Heavens-Above · Gunter

§ Orbital elements

Epoch: 2026-05-24T21:13:21.523296Z

Period
94.11 min
Inclination
53.1584°
Eccentricity
0.0001006
Mean motion
15.30201691 rev/d
Perigee alt
474.5 km
Apogee alt
475.9 km
Semi-major
6,853.3 km
B*
7.3117e-4
RAAN
313.3826°
Arg perigee
79.0630°
Mean anomaly
281.0483°
Rev number
3,939

§ Raw data

STARLINK-351831 65646U 25210AA  26144.88427689  .00021359  00000+0  73117-3 0  99972 65646  53.1584 313.3826 0001006  79.0630 281.0483 15.30201691 39391

JSON: /api/v1/satellites/65646 · /tle

For live sub-satellite position, see the globe view (requires WebGL).

§ Visibility from observer

Set your observer location to see the next 7 days of passes ≥ 10°. The values pass through the URL so the page stays shareable.

No JS? Fill the form by hand. The geolocation button needs JavaScript.